This demonstration page uses our WeatherBlox Daily Observations layout. Learn more.

Hourly Observations for September 21, 2018

Temp ( °F °C ) Dew Point ( °F °C ) Humidity (%) Winds ( mph kmh ) Pressure ( in mb ) Visibility ( mi km ) Precip ( " mm )
12:15 am 00:15 Clear 63 17 58 14.5 85 85 N 14 22 29.97 1015 10 16.09344 0 0
12:35 am 00:35 Clear 61 16.1 57 13.7 86 86 N 16 26 30 1016 10 16.09344 0 0
12:55 am 00:55 Clear 59 15.2 54 12.3 83 83 N 14 22 30 1016 10 16.09344 0 0
1:15 am 01:15 Clear 58 14.6 55 12.5 87 87 N 7 11 30.03 1017 10 16.09344 0 0
1:35 am 01:35 Clear 57 14 55 12.5 91 91 N 6 9 30.03 1017 10 16.09344 0 0
1:55 am 01:55 Clear 57 13.7 55 12.5 93 93 N 7 11 30.03 1017 10 16.09344 0 0
2:15 am 02:15 Clear 57 13.8 54 12.4 91 91 N 7 11 30.03 1017 10 16.09344 0 0
2:35 am 02:35 Clear 56 13.5 54 12.3 93 93 NNW 8 13 30.06 1018 10 16.09344 0 0
2:55 am 02:55 Clear 56 13.3 54 12.1 93 93 NNW 6 9 30.09 1019 10 16.09344 0 0
3:15 am 03:15 Clear 55 13 53 11.8 92 92 NNW 9 15 30.09 1019 10 16.09344 0 0
3:35 am 03:35 Clear 55 12.7 53 11.6 93 93 NNW 9 15 30.12 1020 10 16.09344 0 0
3:55 am 03:55 Clear 55 12.5 53 11.5 94 94 NNW 8 13 30.12 1020 10 16.09344 0 0
4:15 am 04:15 Clear 54 12.2 52 11.2 94 94 NNW 7 11 30.12 1020 10 16.09344 0 0
4:35 am 04:35 Clear 54 12 52 11 94 94 NNW 5 7 30.12 1020 10 16.09344 0 0
4:55 am 04:55 Clear 53 11.7 51 10.8 94 94 N 6 9 30.12 1020 10 16.09344 0 0
5:15 am 05:15 Clear 53 11.7 51 10.5 92 92 Calm 30.12 1020 10 16.09344 0 0
5:35 am 05:35 Clear 52 11.3 51 10.4 94 94 NNW 3 6 30.12 1020 10 16.09344 0 0
5:55 am 05:55 Clear 51 10.6 50 10.1 97 97 NW 3 6 30.18 1022 10 16.09344 0 0
6:15 am 06:15 Clear 50 10.1 50 10 99 99 NW 6 9 30.21 1023 10 16.09344 0 0
6:35 am 06:35 Clear 50 10 49 9.7 98 98 WNW 6 9 30.21 1023 10 16.09344 0 0
6:55 am 06:55 Clear 50 10 49 9.6 97 97 NW 3 6 30.21 1023 10 16.09344 0 0
7:15 am 07:15 Clear 51 10.6 49 9.5 93 93 NNW 5 7 30.21 1023 10 16.09344 0 0
7:35 am 07:35 Sunny 51 10.6 49 9.5 93 93 NNW 5 7 30.24 1024 10 16.09344 0 0
7:55 am 07:55 Sunny 51 10.4 49 9.4 94 94 NW 3 6 30.24 1024 10 16.09344 0 0
8:15 am 08:15 Sunny 51 10.6 49 9.5 93 93 N 6 9 30.27 1025 10 16.09344 0 0
8:35 am 08:35 Sunny 53 11.6 50 9.8 89 89 NNW 5 7 30.24 1024 10 16.09344 0 0
8:55 am 08:55 Sunny 54 12.2 49 9.4 83 83 NNW 6 9 30.24 1024 10 16.09344 0 0
9:15 am 09:15 Sunny 55 12.5 48 9.1 80 80 NNW 9 15 30.24 1024 10 16.09344 0 0
9:35 am 09:35 Sunny 55 12.8 48 8.8 77 77 N 10 17 30.24 1024 10 16.09344 0 0
9:55 am 09:55 Sunny 56 13.2 47 8.3 72 72 NNW 13 20 30.27 1025 10 16.09344 0 0
10:15 am 10:15 Sunny 57 14 47 8.4 69 69 NNW 15 24 30.27 1025 10 16.09344 0 0
10:35 am 10:35 Sunny 57 14.1 47 8.2 68 68 NNW 12 19 30.27 1025 10 16.09344 0 0
10:55 am 10:55 Sunny 59 14.9 47 8.4 65 65 N 14 22 30.27 1025 10 16.09344 0 0
11:15 am 11:15 Sunny 60 15.5 47 8.3 62 62 N 15 24 30.24 1024 10 16.09344 0 0
11:35 am 11:35 Sunny 61 16 47 8.1 60 60 N 15 24 30.24 1024 10 16.09344 0 0
11:55 am 11:55 Sunny 62 16.6 47 8.3 58 58 N 13 20 30.24 1024 10 16.09344 0 0
12:15 pm 12:15 Sunny 63 17.2 47 8.3 56 56 N 14 22 30.24 1024 10 16.09344 0 0
12:35 pm 12:35 Sunny 64 17.7 46 7.9 53 53 N 7 11 30.24 1024 10 16.09344 0 0
12:55 pm 12:55 Sunny 65 18.1 44 6.9 48 48 N 10 17 30.24 1024 10 16.09344 0 0
1:15 pm 13:15 Sunny 66 18.7 44 6.7 46 46 N 10 17 30.21 1023 10 16.09344 0 0
1:35 pm 13:35 Sunny 65 18.5 43 6.3 45 45 N 17 28 30.24 1024 10 16.09344 0 0
1:55 pm 13:55 Sunny 66 18.9 43 6.2 44 44 NNE 15 24 30.21 1023 10 16.09344 0 0
2:15 pm 14:15 Sunny 67 19.2 43 6 42 42 NNE 15 24 30.21 1023 10 16.09344 0 0
2:35 pm 14:35 Sunny 67 19.4 43 6.2 42 42 NE 13 20 30.21 1023 10 16.09344 0 0
2:55 pm 14:55 Sunny 67 19.3 44 6.5 43 43 N 12 19 30.18 1022 10 16.09344 0 0
3:15 pm 15:15 Sunny 67 19.4 42 5.5 40 40 NNE 9 15 30.18 1022 10 16.09344 0 0
3:35 pm 15:35 Sunny 68 19.9 42 5.3 39 39 N 10 17 30.18 1022 10 16.09344 0 0
3:55 pm 15:55 Sunny 67 19.5 42 5.7 41 41 N 13 20 30.18 1022 10 16.09344 0 0
4:15 pm 16:15 Sunny 67 19.5 41 4.9 38 38 NNE 13 20 30.18 1022 10 16.09344 0 0
4:35 pm 16:35 Sunny 67 19.5 41 5 39 39 N 12 19 30.18 1022 10 16.09344 0 0
4:55 pm 16:55 Sunny 67 19.3 41 5 39 39 NNE 10 17 30.18 1022 10 16.09344 0 0
5:15 pm 17:15 Sunny 67 19.2 42 5.4 41 41 NE 13 20 30.18 1022 10 16.09344 0 0
5:35 pm 17:35 Sunny 66 18.8 42 5.6 42 42 NE 13 20 30.18 1022 10 16.09344 0 0
5:55 pm 17:55 Sunny 65 18.5 42 5.5 43 43 NE 10 17 30.18 1022 10 16.09344 0 0
6:15 pm 18:15 Sunny 64 18 42 5.5 44 44 NE 10 17 30.21 1023 10 16.09344 0 0
6:35 pm 18:35 Sunny 63 17.4 42 5.7 46 46 ENE 12 19 30.21 1023 10 16.09344 0 0
6:55 pm 18:55 Sunny 62 16.6 42 5.6 48 48 ENE 9 15 30.21 1023 10 16.09344 0 0
7:15 pm 19:15 Sunny 60 15.7 43 6.2 53 53 ENE 7 11 30.24 1024 10 16.09344 0 0
7:35 pm 19:35 Sunny 57 14.1 44 6.5 60 60 ENE 6 9 30.27 1025 10 16.09344 0 0
7:55 pm 19:55 Clear 55 13 44 6.5 65 65 E 6 9 30.27 1025 10 16.09344 0 0
8:15 pm 20:15 Clear 54 12.2 44 6.5 68 68 E 6 9 30.27 1025 10 16.09344 0 0
8:35 pm 20:35 Clear 53 11.4 44 6.6 73 73 E 6 9 30.3 1026 10 16.09344 0 0
8:55 pm 20:55 Clear 52 11 44 6.7 75 75 E 5 7 30.33 1027 10 16.09344 0 0
9:15 pm 21:15 Clear 51 10.7 44 6.6 76 76 E 6 9 30.33 1027 10 16.09344 0 0
9:35 pm 21:35 Clear 51 10.5 44 6.7 78 78 E 6 9 30.33 1027 10 16.09344 0 0
9:55 pm 21:55 Clear 51 10.5 44 6.7 78 78 E 6 9 30.33 1027 10 16.09344 0 0
10:15 pm 22:15 Clear 50 10 44 6.7 80 80 E 7 11 30.33 1027 10 16.09344 0 0
10:35 pm 22:35 Clear 50 10.1 44 6.7 80 80 E 6 9 30.33 1027 10 16.09344 0 0
10:55 pm 22:55 Clear 48 8.8 44 6.6 86 86 E 7 11 30.33 1027 10 16.09344 0 0
11:15 pm 23:15 Clear 48 9 44 6.6 85 85 E 7 11 30.33 1027 10 16.09344 0 0
11:35 pm 23:35 Clear 47 8.6 44 6.5 87 87 E 6 9 30.36 1028 10 16.09344 0 0
11:55 pm 23:55 Clear 47 8.6 44 6.5 87 87 E 6 9 30.36 1028 10 16.09344 0 0

Powered by AerisWeather